Farmingdale, NY

3:50 AM EST on December 17, 2017 (GMT -0500)
Republic

Weather History for KFRG - July, 2013

Change the Weather History Date:

Tuesday, July 23, 2013

  Actual Average Record
Temperature  
Mean Temperature 78 °F -  
Max Temperature 86 °F 80 °F 99 °F (2011)
Min Temperature 73 °F 65 °F 61 °F (2000)
Cooling Degree Days 14    
Growing Degree Days 28 (Base 50)    
Moisture  
Dew Point 73 °F    
Average Humidity 85    
Maximum Humidity 100    
Minimum Humidity 65    
Precipitation  
Precipitation 0.35 in - - ()
Sea Level Pressure  
Sea Level Pressure 29.66 in    
Wind  
Wind Speed 7 mph (SSW)    
Max Wind Speed 16 mph    
Max Gust Speed 21 mph    
Visibility 9 miles    
Events Rain , Thunderstorm    
Averages and records for this station are not official NWS values.
T = Trace of Precipitation, MM = Missing Value Source: NWS Daily Summary

Daily Weather History Graph

Daily Weather History Graph

Search for Another Location

Airport or City:

Trip Planner

Search our weather history database for the weather conditions in past years. The results will help you decide how hot, cold, wet, or windy it might be!

Date:

Astronomy

Jul. 23, 2013 Rise Set
Actual Time 5:42 AM EDT 8:17 PM EDT
Civil Twilight 5:10 AM EDT 8:49 PM EDT
Nautical Twilight 4:31 AM EDT 9:28 PM EDT
Astronomical Twilight 3:46 AM EDT 10:12 PM EDT
Moon 8:43 PM EDT (7/23) 6:48 AM EDT (7/23)
Length of Visible Light 15h 38m
Length of Day
14h 35m
Full, 99% of the Moon is Illuminated
Jul 23
Full
Jul 29
Last Quarter
Aug 6
New
Aug 14
First Quarter
Aug 20
Full

Hourly Weather History & Observations

Time (EDT) Temp. Heat Index Dew Point Humidity Pressure Visibility Wind Dir Wind Speed Gust Speed Precip Events Conditions
12:53 AM 75.0 °F - 72.0 °F 90% 29.79 in 10.0 mi Calm Calm - 0.01 in   Overcast
1:01 AM 75.2 °F - 73.4 °F 94% 29.79 in 10.0 mi ESE 4.6 mph - N/A   Overcast
1:43 AM 75.2 °F - 73.4 °F 94% 29.78 in 10.0 mi SSE 8.1 mph - N/A   Overcast
1:53 AM 75.0 °F - 73.9 °F 96% 29.77 in 10.0 mi SE 8.1 mph - N/A   Overcast
2:53 AM 75.0 °F - 73.9 °F 96% 29.74 in 10.0 mi South 8.1 mph - N/A   Overcast
3:53 AM 75.0 °F - 75.0 °F 100% 29.72 in 7.0 mi South 5.8 mph - 0.01 in Rain Light Rain
4:53 AM 75.9 °F - 75.0 °F 97% 29.71 in 5.0 mi SSW 8.1 mph - 0.06 in Rain Rain
5:41 AM 75.2 °F - 75.2 °F 100% 29.70 in 4.0 mi South 10.4 mph 20.7 mph 0.11 in Rain Rain
5:53 AM 75.0 °F - 73.9 °F 96% 29.69 in 4.0 mi South 11.5 mph - 0.16 in Rain Rain
6:29 AM 75.2 °F - 73.4 °F 94% 29.69 in 8.0 mi South 9.2 mph - 0.04 in   Mostly Cloudy
6:32 AM 75.2 °F - 73.4 °F 94% 29.68 in 8.0 mi South 9.2 mph - 0.04 in   Mostly Cloudy
6:53 AM 75.0 °F - 73.9 °F 96% 29.68 in 8.0 mi SSW 8.1 mph - 0.04 in   Scattered Clouds
7:09 AM 75.2 °F - 73.4 °F 94% 29.68 in 9.0 mi SSW 10.4 mph 16.1 mph N/A   Mostly Cloudy
7:23 AM 75.2 °F - 75.2 °F 100% 29.68 in 7.0 mi SSW 11.5 mph - N/A   Overcast
7:53 AM 75.9 °F - 75.0 °F 97% 29.68 in 7.0 mi SSW 10.4 mph - N/A   Overcast
8:43 AM 75.2 °F - 73.4 °F 94% 29.66 in 10.0 mi SW 8.1 mph - N/A   Overcast
8:53 AM 77.0 °F - 73.0 °F 88% 29.66 in 10.0 mi SW 6.9 mph - N/A   Scattered Clouds
9:46 AM 78.8 °F - 71.6 °F 78% 29.64 in 10.0 mi WSW 9.2 mph - N/A   Mostly Cloudy
9:53 AM 78.1 °F - 72.0 °F 81% 29.65 in 10.0 mi WSW 10.4 mph - N/A   Mostly Cloudy
10:53 AM 80.1 °F 83.6 °F 71.1 °F 74% 29.65 in 10.0 mi SW 8.1 mph - N/A   Mostly Cloudy
11:41 AM 82.4 °F 87.2 °F 71.6 °F 70% 29.64 in 10.0 mi SW 5.8 mph - N/A   Scattered Clouds
11:53 AM 82.0 °F 86.3 °F 71.1 °F 69% 29.64 in 10.0 mi SW 6.9 mph - N/A   Mostly Cloudy
12:53 PM 82.9 °F 88.0 °F 72.0 °F 69% 29.63 in 10.0 mi SSW 12.7 mph - N/A   Partly Cloudy
1:28 PM 84.2 °F 89.6 °F 71.6 °F 66% 29.63 in 10.0 mi SSW 11.5 mph - N/A   Mostly Cloudy
1:35 PM 84.2 °F 89.6 °F 71.6 °F 66% 29.63 in 10.0 mi SW 9.2 mph - N/A   Scattered Clouds
1:53 PM 82.9 °F 88.0 °F 72.0 °F 69% 29.62 in 10.0 mi SSW 12.7 mph 19.6 mph N/A   Partly Cloudy
2:53 PM 84.9 °F 90.7 °F 72.0 °F 65% 29.60 in 10.0 mi WSW 15.0 mph - N/A   Clear
3:53 PM 84.0 °F 89.6 °F 72.0 °F 67% 29.60 in 10.0 mi SW 15.0 mph - N/A   Clear
4:53 PM 82.9 °F 88.0 °F 72.0 °F 69% 29.58 in 10.0 mi South 15.0 mph - N/A   Clear
5:53 PM 81.0 °F 85.8 °F 73.0 °F 77% 29.57 in 10.0 mi SSW 13.8 mph - N/A   Clear
6:06 PM 80.6 °F 85.4 °F 73.4 °F 79% 29.57 in 10.0 mi SW 16.1 mph - N/A Thunderstorm Clear
6:53 PM 78.1 °F - 71.1 °F 79% 29.59 in 10.0 mi Calm Calm - 0.05 in   Scattered Clouds
7:53 PM 78.1 °F - 73.0 °F 84% 29.59 in 10.0 mi South 8.1 mph - N/A   Clear
8:44 PM 77.0 °F - 73.4 °F 89% 29.60 in 10.0 mi SW 8.1 mph - N/A Thunderstorm Partly Cloudy
8:53 PM 77.0 °F - 72.0 °F 84% 29.60 in 10.0 mi NNW 12.7 mph - N/A Thunderstorm Partly Cloudy
9:19 PM 75.2 °F - 69.8 °F 83% 29.62 in 9.0 mi NNE 5.8 mph - 0.02 in Rain Light Rain
9:53 PM 73.9 °F - 70.0 °F 87% 29.62 in 10.0 mi East 3.5 mph - 0.02 in   Mostly Cloudy
10:53 PM 73.9 °F - 70.0 °F 87% 29.63 in 10.0 mi Calm Calm - N/A   Mostly Cloudy
11:53 PM 73.0 °F - 71.1 °F 93% 29.62 in 10.0 mi Calm Calm - N/A   Partly Cloudy